TimePDT,TemperatureF,Dew PointF,Humidity,Sea Level PressureIn,VisibilityMPH,Wind Direction,Wind SpeedMPH,Gust SpeedMPH,PrecipitationIn,Events,Conditions,WindDirDegrees,DateUTC
12:53 AM,51.1,34.0,52,30.02,10.0,West,10.4,-,N/A,,Clear,270,2013-05-05 07:53:00
1:53 AM,48.9,34.0,56,30.01,10.0,West,8.1,-,N/A,,Clear,260,2013-05-05 08:53:00
2:53 AM,45.0,33.1,63,30.01,10.0,WSW,8.1,27.6,N/A,,Clear,250,2013-05-05 09:53:00
3:53 AM,46.0,33.1,61,30.00,10.0,West,8.1,-,N/A,,Clear,280,2013-05-05 10:53:00
4:38 AM,44.6,33.8,66,30.00,10.0,West,8.1,166.9,N/A,,Squalls,280,2013-05-05 11:38:00
4:53 AM,52.0,33.1,49,29.99,10.0,WSW,8.1,-,N/A,,Clear,250,2013-05-05 11:53:00
5:53 AM,45.0,33.1,63,30.00,10.0,West,9.2,-,N/A,,Clear,280,2013-05-05 12:53:00
6:53 AM,53.1,36.0,52,30.00,10.0,West,9.2,-,N/A,,Clear,270,2013-05-05 13:53:00
7:53 AM,66.9,30.0,25,29.99,10.0,North,9.2,-,N/A,,Clear,10,2013-05-05 14:53:00
8:53 AM,70.0,32.0,25,29.98,10.0,North,8.1,-,N/A,,Clear,350,2013-05-05 15:53:00
9:17 AM,73.4,30.2,20,29.99,10.0,NE,16.1,25.3,N/A,,Clear,50,2013-05-05 16:17:00
9:53 AM,73.9,30.0,20,29.96,10.0,ENE,16.1,24.2,N/A,,Clear,60,2013-05-05 16:53:00
10:53 AM,77.0,30.2,18,29.96,10.0,ENE,15.0,21.9,N/A,,Clear,60,2013-05-05 17:53:00
11:42 AM,80.6,30.2,16,29.94,10.0,NE,18.4,32.2,N/A,,Clear,40,2013-05-05 18:42:00
11:53 AM,79.0,30.0,17,29.92,10.0,NE,23.0,27.6,N/A,,Clear,40,2013-05-05 18:53:00
12:53 PM,82.0,30.9,16,29.89,10.0,ENE,15.0,24.2,N/A,,Clear,60,2013-05-05 19:53:00
1:53 PM,82.9,30.0,15,29.88,10.0,NNE,16.1,23.0,N/A,,Clear,30,2013-05-05 20:53:00
2:53 PM,82.9,30.0,15,29.86,10.0,NNE,15.0,21.9,N/A,,Clear,20,2013-05-05 21:53:00
3:53 PM,84.0,30.0,14,29.84,10.0,ENE,11.5,21.9,N/A,,Clear,60,2013-05-05 22:53:00
4:53 PM,84.0,30.0,14,29.82,10.0,ENE,9.2,18.4,N/A,,Clear,60,2013-05-05 23:53:00
5:53 PM,84.0,30.9,15,29.81,10.0,NNE,10.4,20.7,N/A,,Clear,30,2013-05-06 00:53:00
6:53 PM,82.0,30.0,15,29.80,10.0,NNE,10.4,16.1,N/A,,Clear,30,2013-05-06 01:53:00
7:53 PM,78.1,30.0,17,29.80,10.0,NE,6.9,-,N/A,,Clear,50,2013-05-06 02:53:00
8:53 PM,64.0,35.1,34,29.81,10.0,WSW,3.5,-,N/A,,Clear,240,2013-05-06 03:53:00
9:53 PM,57.9,36.0,44,29.83,10.0,West,6.9,-,N/A,,Clear,260,2013-05-06 04:53:00
10:53 PM,57.9,35.1,42,29.83,10.0,West,11.5,-,N/A,,Clear,270,2013-05-06 05:53:00
11:53 PM,53.1,36.0,52,29.84,10.0,WNW,9.2,-,N/A,,Clear,290,2013-05-06 06:53:00